This is the latest recevied weather packets stored in our database for station/object W7TRD. If no packets are shown the sender has not sent any weather packets the latest 10 day(s).
| Time | Temp. | Humidity | Pressure | Rain* | Wind** | Luminosity | Snow |
|---|---|---|---|---|---|---|---|
| 1777750388 | 17.22° C | 71% | 1016 hPa | 0 mm | - | 789 W/m² | - |
| 1777750084 | 17.22° C | 72% | 1016.1 hPa | 0 mm | - | 630 W/m² | - |
| 1777749781 | 17.78° C | 68% | 1016 hPa | 0 mm | - | 776 W/m² | - |
| 1777749478 | 17.22° C | 68% | 1016.3 hPa | 0 mm | - | 830 W/m² | - |
| 1777749176 | 16.67° C | 71% | 1016.1 hPa | 0 mm | - | 571 W/m² | - |
| 1777748873 | 17.22° C | 70% | 1016.2 hPa | 0 mm | - | 483 W/m² | - |
| 1777748570 | 16.67° C | 71% | 1016.2 hPa | 0 mm | - | 409 W/m² | - |
| 1777748270 | 16.67° C | 71% | 1016.2 hPa | 0 mm | - | 419 W/m² | - |
| 1777747967 | 16.11° C | 71% | 1016.1 hPa | 0 mm | - | 943 W/m² | - |
| 1777747664 | 15.56° C | 74% | 1016.3 hPa | 0 mm | - | 639 W/m² | - |
| 1777747359 | 16.11° C | 73% | 1016.4 hPa | 0 mm | - | 405 W/m² | - |
| 1777747056 | 15.56° C | 72% | 1016.4 hPa | 0 mm | - | 415 W/m² | - |
| 1777746752 | 15.56° C | 75% | 1016.4 hPa | 0 mm | - | 464 W/m² | - |
| 1777746448 | 15° C | 74% | 1016.4 hPa | 0 mm | - | 365 W/m² | - |
| 1777746143 | 15° C | 75% | 1016.6 hPa | 0 mm | - | 464 W/m² | - |
| 1777745840 | 15° C | 75% | 1016.7 hPa | 0 mm | - | 491 W/m² | - |
| 1777745540 | 15° C | 76% | 1016.6 hPa | 0 mm | - | 361 W/m² | - |
| 1777745237 | 14.44° C | 76% | 1016.7 hPa | 0 mm | - | 328 W/m² | - |
| 1777744934 | 15° C | 76% | 1016.9 hPa | 0 mm | - | 247 W/m² | - |
| 1777744633 | 14.44° C | 77% | 1017.1 hPa | 0 mm | - | 328 W/m² | - |
| 1777744329 | 14.44° C | 77% | 1017.3 hPa | 0 mm | - | 280 W/m² | - |
| 1777744026 | 13.89° C | 77% | 1017.1 hPa | 0 mm | - | 300 W/m² | - |
| 1777743723 | 13.89° C | 77% | 1017.3 hPa | 0 mm | - | 302 W/m² | - |
| 1777743420 | 13.89° C | 78% | 1017.3 hPa | 0 mm | - | 228 W/m² | - |
| 1777743117 | 13.89° C | 80% | 1017 hPa | 0 mm | - | 223 W/m² | - |
* Rain latest hour (hover to see other rain measurements)
** Current wind speed in m/s (hover to see current wind gust speed)